Tampa, FL

5:02 PM EDT on March 26, 2017 (GMT -0400)
Tampa International

Weather History for KTPA - September, 2011

Change the Weather History Date:

Friday, September 30, 2011

  Actual Average Record
Temperature  
Mean Temperature 82 °F 80 °F  
Max Temperature 89 °F 87 °F 93 °F (1958)
Min Temperature 75 °F 72 °F 62 °F (1947)
Degree Days  
Heating Degree Days 0 0  
Month to date heating degree days 0 0  
Since 1 July heating degree days 0 0  
Cooling Degree Days 17 15  
Month to date cooling degree days 535 501  
Year to date cooling degree days 3408 3016  
Growing Degree Days 31 (Base 50)    
Moisture  
Dew Point 69 °F    
Average Humidity 69    
Maximum Humidity 87    
Minimum Humidity 50    
Precipitation  
Precipitation 0.00 in 0.15 in 2.72 in (1987)
Month to date precipitation 6.09 6.30  
Year to date precipitation 48.62 40.02  
Sea Level Pressure  
Sea Level Pressure 29.84 in    
Wind  
Wind Speed 6 mph (NW)    
Max Wind Speed 16 mph    
Max Gust Speed 25 mph    
Visibility 10 miles    
Events      
T = Trace of Precipitation, MM = Missing Value Source: NWS Daily Summary

Daily Weather History Graph

Daily Weather History Graph

Search for Another Location

Airport or City:

Trip Planner

Search our weather history database for the weather conditions in past years. The results will help you decide how hot, cold, wet, or windy it might be!

Date:

Astronomy

Sep. 30, 2011 Rise Set
Actual Time 7:22 AM EDT 7:17 PM EDT
Civil Twilight 6:58 AM EDT 7:40 PM EDT
Nautical Twilight 6:31 AM EDT 8:08 PM EDT
Astronomical Twilight 6:04 AM EDT 8:35 PM EDT
Moon 10:53 AM EDT (9/30) 9:45 PM EDT (9/30)
Length of Visible Light 12h 42m
Length of Day
11h 55m
Waxing Crescent, 15% of the Moon is Illuminated
Sep 30
Waxing Crescent
Oct 3
First Quarter
Oct 11
Full
Oct 19
Last Quarter
Oct 26
New

Hourly Weather History & Observations

Time (EDT) Temp. Heat Index Dew Point Humidity Pressure Visibility Wind Dir Wind Speed Gust Speed Precip Events Conditions
12:53 AM 79.0 °F - 70.0 °F 74% 29.88 in 10.0 mi Calm Calm - N/A   Partly Cloudy
1:53 AM 78.1 °F - 71.1 °F 79% 29.86 in 10.0 mi Calm Calm - N/A   Partly Cloudy
2:53 AM 77.0 °F - 71.1 °F 82% 29.85 in 10.0 mi Calm Calm - N/A   Clear
3:53 AM 75.9 °F - 71.1 °F 85% 29.85 in 10.0 mi Calm Calm - N/A   Scattered Clouds
4:53 AM 75.9 °F - 71.1 °F 85% 29.85 in 10.0 mi Calm Calm - N/A   Mostly Cloudy
5:53 AM 75.0 °F - 70.0 °F 84% 29.85 in 10.0 mi Calm Calm - N/A   Scattered Clouds
6:53 AM 75.9 °F - 70.0 °F 82% 29.86 in 10.0 mi Calm Calm - N/A   Mostly Cloudy
7:53 AM 75.9 °F - 70.0 °F 82% 29.86 in 10.0 mi North 4.6 mph - N/A   Mostly Cloudy
8:53 AM 79.0 °F - 69.1 °F 72% 29.86 in 10.0 mi North 5.8 mph - N/A   Scattered Clouds
9:53 AM 82.0 °F 86.3 °F 71.1 °F 69% 29.87 in 10.0 mi Variable 3.5 mph - N/A   Scattered Clouds
10:53 AM 84.0 °F 89.6 °F 72.0 °F 67% 29.87 in 10.0 mi NW 3.5 mph - N/A   Scattered Clouds
11:53 AM 87.1 °F 92.8 °F 71.1 °F 59% 29.87 in 10.0 mi WNW 8.1 mph - N/A   Scattered Clouds
12:53 PM 87.1 °F 91.3 °F 69.1 °F 55% 29.86 in 10.0 mi West 11.5 mph - N/A   Scattered Clouds
1:53 PM 87.8 °F 92.6 °F 69.8 °F 55% 29.83 in 10.0 mi West 12.7 mph 19.6 mph N/A   Scattered Clouds
2:53 PM 87.1 °F 92.0 °F 70.0 °F 57% 29.81 in 10.0 mi West 13.8 mph 20.7 mph N/A   Mostly Cloudy
3:53 PM 86.0 °F 90.1 °F 69.1 °F 57% 29.80 in 10.0 mi WNW 9.2 mph - N/A   Mostly Cloudy
4:53 PM 87.1 °F 89.9 °F 66.9 °F 51% 29.79 in 10.0 mi West 13.8 mph 25.3 mph N/A   Scattered Clouds
5:53 PM 84.9 °F 88.2 °F 68.0 °F 57% 29.79 in 10.0 mi WNW 11.5 mph - N/A   Scattered Clouds
6:53 PM 82.9 °F 85.0 °F 66.0 °F 56% 29.78 in 10.0 mi NW 9.2 mph - N/A   Scattered Clouds
7:53 PM 80.1 °F 82.1 °F 66.0 °F 62% 29.79 in 10.0 mi NW 5.8 mph - N/A   Partly Cloudy
8:53 PM 79.0 °F - 66.0 °F 64% 29.81 in 10.0 mi NW 4.6 mph - N/A   Clear
9:53 PM 78.1 °F - 64.9 °F 64% 29.82 in 10.0 mi NW 4.6 mph - N/A   Clear
10:53 PM 75.9 °F - 64.9 °F 69% 29.84 in 10.0 mi NW 5.8 mph - N/A   Clear
11:53 PM 77.0 °F - 66.0 °F 69% 29.84 in 10.0 mi WNW 3.5 mph - N/A   Clear